• In Uzbekistan
  • List of Countries
  • For 7 days
  • Water Temperature
  • Weather Map
  • Weather Widgets
  • user-avatar
    Login

    Hourly Weather Rawson

    Today, 21 September, Saturday

    Time Temperature Precipitation Wind Pressure Humidity
    00:00 +9°C° 0 mm 10 mps 754 mmHg 40%
    01:00 +10°C° 0 mm 9 mps 755 mmHg 45%
    02:00 +9°C° 0 mm 8 mps 755 mmHg 48%
    03:00 +7°C° 0 mm 8 mps 756 mmHg 49%
    04:00 +7°C° 0 mm 8 mps 756 mmHg 50%
    05:00 +6°C° 0 mm 8 mps 757 mmHg 51%
    06:00 +6°C° 0 mm 9 mps 757 mmHg 47%
    07:00 +7°C° 0 mm 10 mps 758 mmHg 43%
    08:00 +7°C° 0 mm 11 mps 759 mmHg 39%
    09:00 +8°C° 0 mm 10 mps 760 mmHg 35%
    10:00 +10°C° 0 mm 9 mps 760 mmHg 30%
    11:00 +12°C° 0 mm 8 mps 761 mmHg 26%
    12:00 +12°C° 0 mm 8 mps 761 mmHg 25%
    13:00 +14°C° 0 mm 7 mps 761 mmHg 23%
    14:00 +14°C° 0 mm 7 mps 761 mmHg 22%
    15:00 +14°C° 0 mm 6 mps 761 mmHg 23%
    16:00 +14°C° 0 mm 5 mps 762 mmHg 23%
    17:00 +14°C° 0 mm 4 mps 762 mmHg 24%
    18:00 +13°C° 0 mm 4 mps 762 mmHg 28%
    19:00 +12°C° 0 mm 3 mps 763 mmHg 32%
    20:00 +10°C° 0 mm 3 mps 763 mmHg 35%
    21:00 +10°C° 0 mm 3 mps 764 mmHg 36%
    22:00 +10°C° 0 mm 2 mps 764 mmHg 37%
    23:00 +9°C° 0 mm 2 mps 765 mmHg 38%

    Tomorrow, 22 September, Sunday

    Time Temperature Precipitation Wind Pressure Humidity
    00:00 +9°C° 0 mm 2 mps 765 mmHg 38%
    01:00 +9°C° 0 mm 3 mps 765 mmHg 38%
    02:00 +9°C° 0 mm 3 mps 765 mmHg 38%
    03:00 +8°C° 0 mm 3 mps 766 mmHg 42%
    04:00 +8°C° 0 mm 2 mps 766 mmHg 45%
    05:00 +7°C° 0 mm 2 mps 766 mmHg 48%
    06:00 +8°C° 0 mm 2 mps 766 mmHg 46%
    07:00 +9°C° 0 mm 2 mps 766 mmHg 44%
    08:00 +10°C° 0 mm 3 mps 766 mmHg 42%
    09:00 +12°C° 0 mm 4 mps 766 mmHg 36%
    10:00 +14°C° 0 mm 4 mps 766 mmHg 30%
    11:00 +16°C° 0 mm 5 mps 766 mmHg 24%
    12:00 +17°C° 0 mm 6 mps 765 mmHg 22%
    13:00 +18°C° 0 mm 7 mps 764 mmHg 21%
    14:00 +21°C° 0 mm 8 mps 763 mmHg 19%
    15:00 +21°C° 0 mm 8 mps 762 mmHg 19%
    16:00 +21°C° 0 mm 9 mps 762 mmHg 20%
    17:00 +21°C° 0 mm 10 mps 761 mmHg 20%
    18:00 +19°C° 0 mm 10 mps 761 mmHg 22%
    19:00 +18°C° 0 mm 10 mps 761 mmHg 25%
    20:00 +17°C° 0 mm 10 mps 761 mmHg 28%
    21:00 +16°C° 0 mm 9 mps 760 mmHg 30%
    22:00 +16°C° 0 mm 8 mps 760 mmHg 31%
    23:00 +16°C° 0 mm 8 mps 760 mmHg 33%

    Day after tomorrow, 23 September, Monday

    Time Temperature Precipitation Wind Pressure Humidity
    00:00 +15°C° 0 mm 7 mps 760 mmHg 34%
    01:00 +14°C° 0 mm 5 mps 760 mmHg 35%
    02:00 +13°C° 0 mm 4 mps 760 mmHg 36%
    03:00 +12°C° 0 mm 4 mps 761 mmHg 37%
    04:00 +12°C° 0 mm 4 mps 761 mmHg 38%
    05:00 +11°C° 0 mm 4 mps 761 mmHg 40%
    06:00 +12°C° 0 mm 5 mps 761 mmHg 39%
    07:00 +12°C° 0 mm 5 mps 762 mmHg 39%
    08:00 +13°C° 0 mm 6 mps 762 mmHg 39%
    09:00 +14°C° 0 mm 6 mps 762 mmHg 36%
    10:00 +16°C° 0 mm 7 mps 763 mmHg 34%
    11:00 +17°C° 0 mm 7 mps 763 mmHg 31%
    12:00 +18°C° 0 mm 7 mps 763 mmHg 30%
    13:00 +20°C° 0 mm 7 mps 763 mmHg 28%
    14:00 +21°C° 0 mm 7 mps 762 mmHg 27%
    15:00 +21°C° 0 mm 7 mps 762 mmHg 27%
    16:00 +22°C° 0 mm 7 mps 762 mmHg 28%
    17:00 +22°C° 0 mm 8 mps 761 mmHg 29%
    18:00 +21°C° 0 mm 7 mps 762 mmHg 32%
    19:00 +20°C° 0 mm 7 mps 762 mmHg 34%
    20:00 +18°C° 0 mm 7 mps 762 mmHg 37%
    21:00 +18°C° 0 mm 7 mps 762 mmHg 39%
    22:00 +17°C° 0 mm 7 mps 762 mmHg 41%
    23:00 +17°C° 0 mm 7 mps 762 mmHg 43%

    24 September, Tuesday

    Time Temperature Precipitation Wind Pressure Humidity
    00:00 +17°C° 0 mm 7 mps 762 mmHg 44%
    01:00 +16°C° 0 mm 8 mps 762 mmHg 44%
    02:00 +16°C° 0 mm 9 mps 762 mmHg 44%
    03:00 +16°C° 0 mm 9 mps 762 mmHg 46%
    04:00 +16°C° 0 mm 9 mps 762 mmHg 47%
    05:00 +16°C° 0 mm 9 mps 762 mmHg 49%
    06:00 +16°C° 0 mm 10 mps 762 mmHg 47%
    07:00 +17°C° 0 mm 10 mps 763 mmHg 45%
    08:00 +18°C° 0 mm 11 mps 763 mmHg 43%
    09:00 +19°C° 0 mm 11 mps 763 mmHg 39%
    10:00 +21°C° 0 mm 11 mps 763 mmHg 35%
    11:00 +23°C° 0 mm 11 mps 763 mmHg 31%
    12:00 +23°C° 0 mm 10 mps 763 mmHg 30%
    13:00 +24°C° 0 mm 9 mps 763 mmHg 29%
    14:00 +26°C° 0 mm 8 mps 763 mmHg 29%
    15:00 +24°C° 0 mm 7 mps 763 mmHg 31%
    16:00 +23°C° 0 mm 6 mps 763 mmHg 33%
    17:00 +22°C° 0 mm 5 mps 763 mmHg 35%
    18:00 +21°C° 0 mm 4 mps 763 mmHg 39%
    19:00 +19°C° 0 mm 3 mps 763 mmHg 43%
    20:00 +18°C° 0 mm 2 mps 764 mmHg 48%
    21:00 +17°C° 0 mm 2 mps 764 mmHg 48%
    22:00 +17°C° 0 mm 2 mps 764 mmHg 49%
    23:00 +17°C° 0 mm 2 mps 764 mmHg 50%

    25 September, Wednesday

    Time Temperature Precipitation Wind Pressure Humidity
    00:00 +16°C° 0 mm 2 mps 764 mmHg 52%
    01:00 +16°C° 0 mm 2 mps 764 mmHg 53%
    02:00 +16°C° 0 mm 3 mps 764 mmHg 55%
    03:00 +16°C° 0 mm 3 mps 764 mmHg 56%
    04:00 +14°C° 0 mm 3 mps 764 mmHg 58%
    05:00 +14°C° 0 mm 3 mps 764 mmHg 59%
    06:00 +16°C° 0 mm 3 mps 764 mmHg 56%
    07:00 +17°C° 0 mm 3 mps 764 mmHg 53%
    08:00 +17°C° 0 mm 3 mps 763 mmHg 50%
    09:00 +19°C° 0 mm 3 mps 763 mmHg 45%
    10:00 +21°C° 0 mm 4 mps 763 mmHg 40%
    11:00 +22°C° 0 mm 4 mps 763 mmHg 35%
    12:00 +23°C° 0 mm 4 mps 762 mmHg 33%
    13:00 +25°C° 0 mm 4 mps 762 mmHg 30%
    14:00 +26°C° 0 mm 4 mps 761 mmHg 28%
    15:00 +26°C° 0 mm 3 mps 761 mmHg 28%
    16:00 +26°C° 0 mm 3 mps 761 mmHg 27%
    17:00 +26°C° 0 mm 2 mps 760 mmHg 27%
    18:00 +24°C° 0 mm 3 mps 760 mmHg 33%
    19:00 +21°C° 0 mm 3 mps 761 mmHg 38%
    20:00 +19°C° 0 mm 4 mps 761 mmHg 44%
    21:00 +19°C° 0 mm 3 mps 761 mmHg 46%
    22:00 +18°C° 0 mm 3 mps 761 mmHg 48%
    23:00 +17°C° 0 mm 2 mps 761 mmHg 50%

    26 September, Thursday

    Time Temperature Precipitation Wind Pressure Humidity
    00:00 +17°C° 0 mm 2 mps 761 mmHg 51%
    01:00 +17°C° 0 mm 2 mps 761 mmHg 53%
    02:00 +16°C° 0 mm 2 mps 761 mmHg 54%
    03:00 +14°C° 0 mm 4 mps 762 mmHg 58%
    04:00 +14°C° 0 mm 6 mps 762 mmHg 61%
    05:00 +12°C° 0 mm 7 mps 762 mmHg 65%
    06:00 +12°C° 0 mm 7 mps 762 mmHg 66%
    07:00 +12°C° 0 mm 7 mps 763 mmHg 66%
    08:00 +13°C° 0 mm 6 mps 763 mmHg 66%
    09:00 +14°C° 0 mm 7 mps 763 mmHg 63%
    10:00 +15°C° 0 mm 7 mps 763 mmHg 60%
    11:00 +16°C° 0 mm 7 mps 763 mmHg 56%
    12:00 +17°C° 0 mm 7 mps 762 mmHg 55%
    13:00 +17°C° 0 mm 7 mps 762 mmHg 54%
    14:00 +17°C° 0 mm 7 mps 761 mmHg 52%
    15:00 +17°C° 0 mm 8 mps 761 mmHg 56%
    16:00 +16°C° 0 mm 8 mps 760 mmHg 60%
    17:00 +15°C° 0 mm 8 mps 759 mmHg 64%
    18:00 +13°C° 0 mm 8 mps 759 mmHg 66%
    19:00 +13°C° 0 mm 8 mps 759 mmHg 69%
    20:00 +13°C° 0 mm 8 mps 759 mmHg 72%
    21:00 +14°C° 0 mm 7 mps 758 mmHg 70%
    22:00 +14°C° 0 mm 7 mps 757 mmHg 69%
    23:00 +15°C° 0 mm 6 mps 757 mmHg 67%
    Show more